Waarnemingen

Advertentie
Mijn weer
Oviedo, Spanje (8015): temperatuur & dauwpunt: 17.05.2018 22:00:00 - 23.05.2018 22:00:00 (CEST)Oviedo, Spanje (8015): windsnelheid: 17.05.2018 22:00:00 - 23.05.2018 22:00:00 (CEST)Oviedo, Spanje (8015): windrichting: 17.05.2018 22:00:00 - 23.05.2018 22:00:00 (CEST)Oviedo, Spanje (8015): luchtdruk: 17.05.2018 22:00:00 - 23.05.2018 22:00:00 (CEST)Oviedo, Spanje (8015): zicht: 17.05.2018 22:00:00 - 23.05.2018 22:00:00 (CEST)Oviedo, Spanje (8015): neerslag: 17.05.2018 22:00:00 - 23.05.2018 22:00:00 (CEST)
Datum & Tijd tt [°C] td [°C] ff [km/u] ff [kn] dd ppp [hPa] vv [km] rr [mm]
23.05.2018 22:00:00 16,0 14,9 8 4 ONO 1016,1 3,6 0,2
23.05.2018 21:00:00 17,2 15,4 4 2 ONO 1016,1 7 0,0
23.05.2018 20:00:00 17,7 15,3 8 4 O 1015,6 12 -
23.05.2018 19:00:00 18,5 14,8 5 3 O 1015,3 13 0,0
23.05.2018 18:00:00 18,9 14,6 8 4 ONO 1015,6 15 0,0
23.05.2018 17:00:00 19,1 14,8 9 5 ONO 1015,7 15 -
23.05.2018 16:00:00 20,1 14,0 8 4 ONO 1016,1 17 0,0
23.05.2018 15:00:00 21,1 13,8 9 5 NO 1016,1 19 0,0
23.05.2018 14:00:00 21,7 13,8 4 2 N 1016,2 18 -
23.05.2018 13:00:00 19,9 13,1 9 5 NO 1016,6 17 0,0
23.05.2018 12:00:00 17,6 13,1 5 3 N 1017,1 8 0,0
23.05.2018 11:00:00 15,2 13,4 4 2 W 1017,6 5 -
23.05.2018 10:00:00 13,4 13,2 4 2 Z 1017,9 3,4 0,0
23.05.2018 09:00:00 12,3 12,1 2 1 NNW 1017,9 0,1 0,0
23.05.2018 08:00:00 11,9 11,7 2 1 ZW 1017,8 0,1 -
23.05.2018 07:00:00 11,9 11,6 2 1 WNW 1017,3 0,1 0,0
23.05.2018 06:00:00 12,4 12,1 2 1 ZW 1017,1 0,2 0,0
23.05.2018 05:00:00 12,6 12,0 2 1 ZZO 1017,0 0,9 -
23.05.2018 04:00:00 12,7 12,1 0 0 N 1017,4 1,9 0,0
23.05.2018 03:00:00 13,0 12,1 4 2 WNW 1017,7 1,8 0,0
23.05.2018 02:00:00 13,7 11,7 2 1 N 1018,0 10 -
23.05.2018 01:00:00 14,4 12,4 4 2 O 1018,0 8 0,0
23.05.2018 00:00:00 15,2 12,7 5 3 ONO 1017,9 12 0,0
22.05.2018 23:00:00 15,6 12,5 5 3 O 1017,5 14 -
22.05.2018 22:00:00 16,6 11,9 5 3 O 1016,8 17 0,0
22.05.2018 21:00:00 17,9 11,2 5 3 NNO 1016,1 0,4 0,0
22.05.2018 20:00:00 18,6 11,4 8 4 NNO 1015,7 20 -
22.05.2018 19:00:00 20,1 11,8 11 6 ONO 1015,1 19 0,0
22.05.2018 18:00:00 20,0 12,5 13 7 NO 1014,9 20 0,0
22.05.2018 17:00:00 20,8 11,1 18 10 NO 1014,7 20 -
22.05.2018 16:00:00 21,4 10,5 18 10 NO 1014,5 20 0,0
22.05.2018 15:00:00 21,7 10,5 11 6 NO 1014,4 20 0,0
22.05.2018 14:00:00 21,8 12,1 8 4 NNO 1014,7 20 -
22.05.2018 13:00:00 21,3 11,6 9 5 ONO 1015,1 20 0,0
22.05.2018 12:00:00 19,9 11,4 8 4 ONO 1015,3 19 0,0
22.05.2018 11:00:00 18,1 13,4 4 2 WNW 1015,2 10 -
22.05.2018 10:00:00 15,8 12,7 2 1 ZW 1015,3 10 0,0
22.05.2018 09:00:00 14,3 11,8 2 1 ZW 1015,1 9 0,0
22.05.2018 08:00:00 12,0 11,4 4 2 Z 1015,0 4,0 -
22.05.2018 07:00:00 10,9 10,1 4 2 ZZW 1014,6 4,4 0,0
22.05.2018 06:00:00 11,2 10,3 5 3 ZZW 1014,2 4,7 0,0
22.05.2018 05:00:00 11,5 10,2 2 1 Z 1014,2 6 -
22.05.2018 04:00:00 11,7 10,4 2 1 Z 1014,4 9 0,0
22.05.2018 03:00:00 12,3 10,2 2 1 Z 1014,5 12 0,0
22.05.2018 02:00:00 13,0 10,2 5 3 Z 1014,6 10 -
22.05.2018 01:00:00 13,1 9,7 2 1 ZO 1014,7 13 0,0
22.05.2018 00:00:00 13,6 10,0 4 2 Z 1014,4 16 0,0
21.05.2018 23:00:00 14,7 10,5 5 3 ZW 1013,9 15 -
21.05.2018 22:00:00 15,6 10,6 4 2 ZO 1013,0 18 0,0
21.05.2018 21:00:00 16,6 10,7 9 5 ONO 1012,0 0,4 0,0
21.05.2018 20:00:00 18,0 10,4 9 5 ONO 1011,3 20 -
21.05.2018 19:00:00 19,7 12,2 9 5 ONO 1010,5 19 0,0
21.05.2018 18:00:00 20,6 12,8 9 5 ONO 1010,3 18 0,0
21.05.2018 17:00:00 21,3 13,0 5 3 O 1010,3 20 -
21.05.2018 16:00:00 20,9 14,3 9 5 O 1010,4 16 0,0
21.05.2018 15:00:00 20,1 13,3 9 5 ONO 1010,7 14 0,0
21.05.2018 14:00:00 20,6 13,8 4 2 ONO 1010,7 20 -
21.05.2018 13:00:00 18,3 12,3 4 2 N 1011,1 17 0,0
21.05.2018 12:00:00 17,4 12,1 4 2 NW 1011,3 16 0,0
21.05.2018 11:00:00 16,0 12,0 4 2 W 1011,2 20 -
21.05.2018 10:00:00 14,8 11,4 4 2 WNW 1011,4 13 0,0
21.05.2018 09:00:00 13,1 10,8 4 2 Z 1011,5 10 0,0
21.05.2018 08:00:00 10,6 9,8 5 3 Z 1011,7 10 -
21.05.2018 07:00:00 10,2 9,4 5 3 Z 1011,6 6 0,0
21.05.2018 06:00:00 10,4 9,6 4 2 Z 1011,5 6 0,0
21.05.2018 05:00:00 10,9 10,1 5 3 ZZW 1011,9 5 -
21.05.2018 04:00:00 11,3 10,4 4 2 ZZW 1012,5 6 0,0
21.05.2018 03:00:00 11,9 10,5 4 2 ZZW 1012,8 9 0,0
21.05.2018 02:00:00 12,6 10,8 4 2 O 1013,3 12 -
21.05.2018 01:00:00 12,9 10,8 4 2 ONO 1013,8 14 0,0
21.05.2018 00:00:00 13,8 10,6 4 2 O 1014,2 17 0,0
20.05.2018 23:00:00 14,3 10,1 8 4 ONO 1014,1 15 -
20.05.2018 22:00:00 15,1 10,1 11 6 NO 1013,6 19 0,0
20.05.2018 21:00:00 16,4 10,5 16 9 NO 1013,2 0,4 0,0
20.05.2018 20:00:00 17,4 10,7 18 10 NO 1012,9 20 -
20.05.2018 19:00:00 18,5 10,6 16 9 NO 1012,8 19 0,0
20.05.2018 18:00:00 19,4 10,1 15 8 NO 1013,0 20 0,0
20.05.2018 17:00:00 19,9 9,5 16 9 NO 1013,3 20 -
20.05.2018 16:00:00 20,4 9,3 16 9 NO 1013,9 20 0,0
20.05.2018 15:00:00 20,4 9,6 11 6 NO 1014,6 20 0,0
20.05.2018 14:00:00 19,6 10,0 9 5 ONO 1015,3 20 -
20.05.2018 13:00:00 19,8 9,7 9 5 O 1016,1 20 0,0
20.05.2018 12:00:00 17,9 10,0 9 5 O 1016,8 19 0,0
20.05.2018 11:00:00 16,2 10,9 5 3 ZO 1017,4 15 -
20.05.2018 10:00:00 14,3 10,7 5 3 ZZO 1018,1 9 0,0
20.05.2018 09:00:00 11,4 10,1 2 1 WZW 1018,6 - 0,0
20.05.2018 08:00:00 10,9 9,7 4 2 Z 1018,3 5 -
20.05.2018 07:00:00 11,2 10,3 5 3 OZO 1018,2 - 0,0
20.05.2018 06:00:00 11,4 10,3 4 2 ZZO 1018,2 4,9 0,0
20.05.2018 05:00:00 12,0 11,1 4 2 ZZO 1018,4 5 -
20.05.2018 04:00:00 12,1 11,3 4 2 ZZW 1018,7 4,4 0,0
20.05.2018 03:00:00 12,1 11,5 4 2 W 1019,2 2,7 0,0
20.05.2018 02:00:00 12,4 11,6 2 1 ZW 1019,6 3,5 -
20.05.2018 01:00:00 12,1 11,0 4 2 W 1019,8 - 0,0
20.05.2018 00:00:00 12,9 11,1 4 2 WNW 1020,0 10 0,0
19.05.2018 23:00:00 13,7 11,6 5 3 ONO 1019,6 15 -
19.05.2018 22:00:00 14,8 11,4 5 3 O 1019,0 17 0,0
19.05.2018 21:00:00 16,3 9,2 8 4 NO 1018,6 0,4 0,0
19.05.2018 20:00:00 17,1 9,3 11 6 NO 1018,4 20 -
19.05.2018 19:00:00 18,5 10,3 16 9 NO 1018,2 19 0,0
19.05.2018 18:00:00 19,4 10,9 9 5 NO 1018,2 19 0,0
19.05.2018 17:00:00 20,2 11,7 11 6 ONO 1018,3 20 -
19.05.2018 16:00:00 20,4 11,3 15 8 NO 1018,6 19 0,0
19.05.2018 15:00:00 20,7 12,4 13 7 NO 1018,9 19 0,0
19.05.2018 14:00:00 20,1 12,8 9 5 NO 1019,2 20 -
19.05.2018 13:00:00 19,1 13,5 8 4 NO 1019,5 18 0,0
19.05.2018 12:00:00 16,9 12,4 5 3 N 1020,0 11 0,0
19.05.2018 11:00:00 15,1 12,4 2 1 ONO 1020,4 7 -
19.05.2018 10:00:00 14,1 12,3 2 1 ONO 1020,6 7 0,0
19.05.2018 09:00:00 13,3 12,5 2 1 O 1020,3 - 0,0
19.05.2018 08:00:00 12,8 12,2 4 2 NO 1020,1 4,0 -
19.05.2018 07:00:00 12,8 12,2 2 1 NW 1019,6 3,7 0,0
19.05.2018 06:00:00 13,0 12,1 2 1 O 1019,3 3,6 0,0
19.05.2018 05:00:00 13,2 12,1 4 2 Z 1019,2 6 -
19.05.2018 04:00:00 13,3 11,9 4 2 O 1019,5 6 0,0
19.05.2018 03:00:00 13,3 12,4 5 3 O 1019,9 6 0,0
19.05.2018 02:00:00 13,4 12,5 5 3 O 1020,3 6 -
19.05.2018 01:00:00 13,5 12,4 5 3 O 1020,3 6 0,0
19.05.2018 00:00:00 13,6 12,3 8 4 ONO 1020,3 8 0,0
18.05.2018 23:00:00 14,0 12,4 4 2 ONO 1020,2 12 -
18.05.2018 22:00:00 14,9 12,6 9 5 ONO 1019,2 12 0,0
18.05.2018 21:00:00 15,6 12,7 11 6 ONO 1018,7 13 0,0
18.05.2018 20:00:00 16,9 12,8 16 9 NO 1018,2 12 -
18.05.2018 19:00:00 17,9 13,0 15 8 ONO 1017,8 16 0,0
18.05.2018 18:00:00 18,6 13,5 16 9 NO 1017,6 15 0,0
18.05.2018 17:00:00 18,8 13,2 15 8 NO 1017,6 12 -
18.05.2018 16:00:00 18,6 13,2 13 7 NO 1017,8 18 0,0
18.05.2018 15:00:00 18,3 12,3 15 8 NO 1018,2 17 0,0
18.05.2018 14:00:00 18,1 12,1 11 6 ONO 1018,9 15 -
18.05.2018 13:00:00 17,7 11,5 11 6 O 1019,4 19 0,0
18.05.2018 12:00:00 16,2 11,6 9 5 OZO 1019,9 16 0,0
18.05.2018 11:00:00 12,6 11,5 4 2 N 1020,6 4,0 -
18.05.2018 10:00:00 12,1 11,6 4 2 ZW 1020,8 3,8 0,0
18.05.2018 09:00:00 11,7 11,2 4 2 ZW 1020,3 4,1 0,0
18.05.2018 08:00:00 11,3 11,0 4 2 W 1020,1 0,7 -
18.05.2018 07:00:00 11,5 10,9 4 2 ZW 1019,7 1,3 0,0
18.05.2018 06:00:00 11,6 10,8 4 2 ZZW 1019,5 4,7 0,0
18.05.2018 05:00:00 11,6 10,7 4 2 OZO 1019,4 5 -
18.05.2018 04:00:00 11,3 10,5 5 3 NNO 1019,3 6 0,0
18.05.2018 03:00:00 11,3 10,5 5 3 ONO 1019,2 6 0,0
18.05.2018 02:00:00 11,5 10,9 4 2 O 1019,4 4,0 -
18.05.2018 01:00:00 11,5 10,4 4 2 OZO 1019,5 6 0,0
18.05.2018 00:00:00 11,9 10,6 2 1 ONO 1019,5 8 0,0
17.05.2018 23:00:00 12,7 10,9 8 4 O 1019,5 10 -
17.05.2018 22:00:00 13,2 10,7 11 6 ONO 1018,9 12 0,0

tt = temperatuur
td = dauwpunt
ff = windsnelheid
dd = windrichting
ppp = luchtdruk
vv = zicht
rr = neerslag

Weerstations in de omgeving